Weather History for KLMT - June, 2013

Change the Weather History Date:

Monday, June 24, 2013

  Actual Average Record
Temperature  
Mean Temperature 54 °F 61 °F  
Max Temperature 58 °F 77 °F 94 °F (2006)
Min Temperature 50 °F 44 °F 32 °F (2012)
Degree Days  
Heating Degree Days 11 5  
Month to date heating degree days 166 191  
Since 1 June heating degree days 166 191  
Since 1 July heating degree days 6623 6947  
Cooling Degree Days 0 1  
Month to date cooling degree days 18 2  
Year to date cooling degree days 18 3  
Since 1 June cooling degree days 18 2  
Growing Degree Days 2 (Base 50)    
Moisture  
Dew Point 47 °F    
Average Humidity 82    
Maximum Humidity 96    
Minimum Humidity 66    
Precipitation  
Precipitation 0.55 in 0.04 in 0.84 in (1975)
Month to date precipitation 0.91 0.75  
Year to date precipitation 4.30 8.54  
Sea Level Pressure  
Sea Level Pressure 29.74 in    
Wind  
Wind Speed 8 mph (SSW)    
Max Wind Speed 22 mph    
Max Gust Speed 28 mph    
Visibility 8 miles    
Events Rain    
T = Trace of Precipitation, MM = Missing Value Source: NWS Daily Summary

Daily Weather History Graph

Daily Weather History Graph

Search for Another Location

Airport or City:

Trip Planner

Search our weather history database for the weather conditions in past years. The results will help you decide how hot, cold, wet, or windy it might be!

Date:

Astronomy

Jun. 24, 2013 Rise Set
Actual Time 5:31 AM PDT 8:47 PM PDT
Civil Twilight 4:57 AM PDT 9:21 PM PDT
Nautical Twilight 4:12 AM PDT 10:06 PM PDT
Astronomical Twilight 3:18 AM PDT 11:00 PM PDT
Moon 9:50 PM PDT (6/24) 7:07 AM PDT (6/24)
Length of Visible Light 16h 24m
Length of Day
15h 15m
Full, 97% of the Moon is Illuminated
Jun 24
Full
Jun 29
Last Quarter
Jul 8
New
Jul 15
First Quarter
Jul 22
Full

Hourly Weather History & Observations

Time (PDT) Temp. Dew Point Humidity Pressure Visibility Wind Dir Wind Speed Gust Speed Precip Events Conditions
12:53 AM 53.1 °F 46.0 °F 77% 29.68 in 10.0 mi SSE 5.8 mph - N/A   Clear
1:53 AM 53.1 °F 46.0 °F 77% 29.67 in 10.0 mi South 6.9 mph - N/A   Mostly Cloudy
2:53 AM 53.1 °F 46.9 °F 80% 29.65 in 8.0 mi SSE 3.5 mph - 0.01 in Rain Rain
3:53 AM 51.1 °F 50.0 °F 96% 29.65 in 5.0 mi South 5.8 mph - 0.11 in Rain Rain
4:13 AM 51.8 °F 50.0 °F 94% 29.74 in 3.0 mi South 5.8 mph - 0.09 in Rain Heavy Rain
4:27 AM 51.8 °F 50.0 °F 94% 29.72 in 5.0 mi Variable 4.6 mph - 0.12 in Rain Light Rain
4:53 AM 51.1 °F 50.0 °F 96% 29.64 in 10.0 mi Calm Calm - 0.12 in   Overcast
5:53 AM 51.1 °F 50.0 °F 96% 29.65 in 6.0 mi Variable 3.5 mph - 0.04 in Rain Rain
6:53 AM 50.0 °F 46.9 °F 89% 29.65 in 2.5 mi West 5.8 mph - 0.12 in Rain Rain
7:08 AM 50.0 °F 46.4 °F 87% 29.74 in 4.0 mi West 6.9 mph - 0.03 in Rain Rain
7:53 AM 50.0 °F 46.0 °F 86% 29.66 in 7.0 mi West 3.5 mph - 0.07 in Rain Light Rain
8:53 AM 50.0 °F 46.0 °F 86% 29.69 in 7.0 mi WNW 3.5 mph - 0.04 in Rain Light Rain
9:32 AM 50.0 °F 46.4 °F 87% 29.77 in 10.0 mi West 5.8 mph - 0.01 in   Overcast
9:53 AM 50.0 °F 46.0 °F 86% 29.70 in 10.0 mi Calm Calm - 0.01 in   Overcast
10:11 AM 51.8 °F 46.4 °F 82% 29.77 in 10.0 mi Calm Calm - N/A   Overcast
10:24 AM 51.8 °F 46.4 °F 82% 29.76 in 10.0 mi Calm Calm - N/A   Overcast
10:53 AM 51.1 °F 46.0 °F 83% 29.70 in 10.0 mi Calm Calm - 0.00 in Rain Light Rain
11:53 AM 52.0 °F 46.9 °F 83% 29.71 in 10.0 mi SE 3.5 mph - 0.00 in Rain Light Rain
12:11 PM 53.6 °F 46.4 °F 77% 29.77 in 10.0 mi Calm Calm - 0.00 in   Overcast
12:46 PM 51.8 °F 46.4 °F 82% 29.78 in 4.0 mi South 5.8 mph - 0.01 in Rain Light Rain
12:53 PM 51.1 °F 48.0 °F 89% 29.73 in 3.0 mi SW 3.5 mph - 0.01 in Rain Light Rain
12:57 PM 51.8 °F 48.2 °F 88% 29.79 in 2.5 mi SW 3.5 mph - 0.01 in Rain Light Rain
1:05 PM 51.8 °F 48.2 °F 88% 29.79 in 3.0 mi Calm Calm - 0.01 in Rain Light Rain
1:14 PM 51.8 °F 48.2 °F 88% 29.79 in 7.0 mi WNW 4.6 mph - 0.01 in Rain Light Rain
1:31 PM 53.6 °F 50.0 °F 88% 29.79 in 8.0 mi Calm Calm - 0.01 in Rain Light Rain
1:53 PM 55.0 °F 48.9 °F 80% 29.72 in 10.0 mi SW 9.2 mph - 0.01 in   Overcast
2:05 PM 55.4 °F 48.2 °F 77% 29.79 in 10.0 mi SW 15.0 mph - N/A   Overcast
2:53 PM 55.9 °F 46.9 °F 72% 29.72 in 10.0 mi SSW 6.9 mph - N/A   Overcast
3:53 PM 55.9 °F 46.9 °F 72% 29.74 in 10.0 mi SSW 12.7 mph - 0.01 in   Overcast
4:53 PM 55.0 °F 46.9 °F 74% 29.74 in 10.0 mi South 17.3 mph 20.7 mph 0.00 in Rain Light Rain
5:53 PM 55.9 °F 46.0 °F 69% 29.74 in 10.0 mi South 12.7 mph 20.7 mph 0.00 in   Mostly Cloudy
6:53 PM 54.0 °F 44.1 °F 69% 29.76 in 10.0 mi South 16.1 mph 24.2 mph N/A   Partly Cloudy
7:07 PM 53.6 °F 42.8 °F 67% 29.83 in 10.0 mi South 20.7 mph 25.3 mph N/A   Overcast
7:53 PM 53.6 °F 42.8 °F 67% 29.77 in 10.0 mi South 16.1 mph 24.2 mph N/A   Mostly Cloudy
8:53 PM 53.1 °F 43.0 °F 69% 29.77 in 10.0 mi South 16.1 mph 25.3 mph N/A   Overcast
9:53 PM 51.1 °F 44.1 °F 77% 29.79 in 10.0 mi SE 12.7 mph - N/A   Scattered Clouds
10:53 PM 52.0 °F 44.1 °F 74% 29.79 in 10.0 mi SSE 15.0 mph - N/A   Overcast
11:53 PM 52.0 °F 45.0 °F 77% 29.79 in 10.0 mi SSE 15.0 mph - N/A   Overcast